Weather History for Jackson, MS

Change the Weather History Date:

Monday, October 11, 2010

  Actual Average Record
Temperature  
Mean Temperature 73 °F 67 °F  
Max Temperature 86 °F 79 °F 93 °F (1928)
Min Temperature 60 °F 55 °F 35 °F (1964)
Degree Days  
Heating Degree Days 0 2  
Month to date heating degree days 15 16  
Since 1 July heating degree days 15 23  
Cooling Degree Days 8 4  
Month to date cooling degree days 42 54  
Year to date cooling degree days 2662 2180  
Growing Degree Days 22 (Base 50)    
Moisture  
Dew Point 54 °F    
Average Humidity 57    
Maximum Humidity 84    
Minimum Humidity 29    
Precipitation  
Precipitation 0.00 in 0.12 in 1.35 in (1897)
Month to date precipitation 0.00 1.31  
Year to date precipitation 35.28 41.62  
Sea Level Pressure  
Sea Level Pressure 29.93 in    
Wind  
Wind Speed 4 mph (SSW)    
Max Wind Speed 20 mph    
Max Gust Speed 22 mph    
Visibility 10 miles    
Events      
T = Trace of Precipitation, MM = Missing Value Source: NWS Daily Summary

Daily Weather History Graph

Daily Weather History Graph

Search for Another Location

Airport:

Trip Planner

Search our weather history database for the weather conditions in past years. The results will help you decide how hot, cold, wet, or windy it might be!

Date:

Astronomy

Oct. 11, 2010 Rise Set
Actual Time 7:01 AM CDT 6:32 PM CDT
Civil Twilight 6:36 AM CDT 6:57 PM CDT
Nautical Twilight 6:08 AM CDT 7:25 PM CDT
Astronomical Twilight 5:39 AM CDT 7:53 PM CDT
Moon 11:19 AM CDT (10/11) 9:28 PM CDT (10/11)
Length of Visible Light 12h 20m
Length of Day
11h 31m
Waxing Crescent, 19% of the Moon is Illuminated
Oct 11
Waxing Crescent
Oct 14
First Quarter
Oct 22
Full
Oct 30
Last Quarter
Nov 5
New

Hourly Weather History & Observations

Time (CDT) Temp. Heat Index Dew Point Humidity Pressure Visibility Wind Dir Wind Speed Gust Speed Precip Events Conditions
12:54 AM 69.1 °F - 53.1 °F 57% 29.92 in 10.0 mi Calm Calm - N/A   Partly Cloudy
1:54 AM 66.0 °F - 54.0 °F 65% 29.92 in 10.0 mi Calm Calm - N/A   Partly Cloudy
2:54 AM 64.9 °F - 55.0 °F 70% 29.93 in 10.0 mi Calm Calm - N/A   Clear
3:54 AM 62.1 °F - 54.0 °F 75% 29.94 in 10.0 mi Calm Calm - N/A   Partly Cloudy
4:54 AM 62.1 °F - 55.0 °F 78% 29.95 in 10.0 mi Calm Calm - N/A   Mostly Cloudy
5:54 AM 63.0 °F - 55.0 °F 75% 29.96 in 10.0 mi SSE 3.5 mph - N/A   Scattered Clouds
6:54 AM 61.0 °F - 55.0 °F 81% 29.97 in 9.0 mi SSE 3.5 mph - N/A   Scattered Clouds
7:54 AM 63.0 °F - 55.9 °F 78% 29.98 in 8.0 mi Calm Calm - N/A   Mostly Cloudy
8:54 AM 69.1 °F - 57.9 °F 68% 29.99 in 9.0 mi Calm Calm - N/A   Clear
9:54 AM 73.0 °F - 60.1 °F 64% 30.00 in 10.0 mi West 5.8 mph - N/A   Clear
10:54 AM 78.1 °F - 60.1 °F 54% 30.00 in 10.0 mi West 5.8 mph - N/A   Clear
11:54 AM 81.0 °F 80.8 °F 55.9 °F 42% 29.98 in 10.0 mi WNW 9.2 mph - N/A   Clear
12:54 PM 82.0 °F 81.3 °F 54.0 °F 38% 29.96 in 10.0 mi SW 8.1 mph - N/A   Partly Cloudy
1:54 PM 84.0 °F - 52.0 °F 33% 29.92 in 10.0 mi Variable 6.9 mph - N/A   Scattered Clouds
2:54 PM 82.9 °F - 51.1 °F 33% 29.89 in 10.0 mi Variable 4.6 mph 16.1 mph N/A   Scattered Clouds
3:54 PM 84.9 °F - 48.9 °F 29% 29.88 in 10.0 mi Variable 6.9 mph - N/A   Partly Cloudy
4:54 PM 84.9 °F - 48.9 °F 29% 29.88 in 10.0 mi WSW 3.5 mph - N/A   Mostly Cloudy
5:54 PM 82.0 °F - 51.1 °F 34% 29.88 in 10.0 mi WSW 3.5 mph - N/A   Partly Cloudy
6:54 PM 75.0 °F - 52.0 °F 44% 29.88 in 10.0 mi Calm Calm - N/A   Partly Cloudy
7:54 PM 71.1 °F - 54.0 °F 55% 29.88 in 10.0 mi South 3.5 mph - N/A   Clear
8:54 PM 68.0 °F - 54.0 °F 61% 29.91 in 10.0 mi SSE 4.6 mph - N/A   Clear
9:54 PM 73.0 °F - 52.0 °F 48% 29.92 in 10.0 mi South 3.5 mph - N/A   Mostly Cloudy
10:54 PM 73.0 °F - 55.9 °F 55% 29.94 in 10.0 mi Variable 4.6 mph - N/A   Mostly Cloudy
11:54 PM 72.0 °F - 60.1 °F 66% 29.93 in 10.0 mi Variable 4.6 mph - N/A   Scattered Clouds